Starlink 34895

operational
NORAD ID: 65349 Int'l Des: 2025-189 Owner: SPXS Country: US Constellation: starlink
LEOCIRCULAR

About Starlink 34895

Description loading...

Live Position

Loading 3D Globe...

Upcoming Passes

Altitude History

Altitude vs Time

uPlot chart will show altitude changes over time

Two-Line Element Set

1 65349U 25189AC 26062.72591429 .00037791 00000-0 12807-2 0 9994
2 65349 53.1583 234.4461 0001353 153.9367 206.1702 15.30222945 30154
Epoch: Mar 3, 2026 • Age: 26 hours

Current Status

Altitude 491.9 km
Velocity 7.62 km/s
Sub-Earth Point -48.88°S, 85.76°W
Launch Date Aug 27, 2025
Age 0.5 years
Type internet

Technical Details

Classification Payload
Mass 575.00 kg
Dry Mass 530.00 kg
Total Mass 575.00 kg
Length 0.30 m
Diameter 4.10 m
Span 29.00 m
Shape Box + pan
Manufacturer SPXS
Bus Type Starlink V2MO
Phase Status In Orbit
Owner/State SPXS/US

Large Constellations

Loading constellations...